This is the latest recevied weather packets stored in our database for station/object IA5ITY-13. If no packets are shown the sender has not sent any weather packets the latest 10 day(s).
| Time | Temp. | Humidity | Pressure | Rain* | Wind** | Luminosity | Snow |
|---|---|---|---|---|---|---|---|
| 1777512012 | 16.11° C | 97% | 1014.8 hPa | 0 mm | - | - | - |
| 1777511712 | 16.11° C | 98% | 1014.7 hPa | 0 mm | - | - | - |
| 1777511413 | 16.11° C | 99% | 1014.8 hPa | 0 mm | - | - | - |
| 1777510212 | 15° C | 97% | 1014.8 hPa | 0 mm | - | - | - |
| 1777509309 | 16.11° C | 96% | 1014.9 hPa | 0 mm | - | - | - |
| 1777509023 | 16.11° C | 96% | 1014.8 hPa | 0 mm | - | - | - |
| 1777508709 | 16.11° C | 97% | 1014.8 hPa | 0 mm | - | - | - |
| 1777508412 | 16.11° C | 95% | 1014.9 hPa | 0 mm | - | - | - |
| 1777508112 | 16.11° C | 95% | 1014.9 hPa | 0 mm | - | - | - |
| 1777507813 | 16.11° C | 94% | 1014.8 hPa | 0 mm | - | - | - |
| 1777507509 | 16.11° C | 93% | 1014.7 hPa | 0 mm | - | - | - |
| 1777507234 | 16.11° C | 93% | 1014.8 hPa | 0 mm | - | - | - |
| 1777503632 | 17.22° C | 87% | 1014.9 hPa | 0 mm | - | - | - |
| 1777497312 | 17.22° C | 72% | 1014.1 hPa | 0 mm | - | - | - |
| 1777496709 | 16.11° C | 57% | 1014.1 hPa | 0 mm | - | - | - |
| 1777496432 | 16.11° C | 54% | 1014 hPa | 0 mm | - | - | - |
| 1777494013 | 16.11° C | 54% | 1013.9 hPa | 0 mm | - | - | - |
| 1777492511 | 17.78° C | 63% | 1013.7 hPa | 0 mm | - | - | - |
| 1777491309 | 17.22° C | 48% | 1013.5 hPa | 0 mm | - | - | - |
| 1777491049 | 17.78° C | 45% | 1013.3 hPa | 0 mm | - | - | - |
| 1777490709 | 17.22° C | 46% | 1013.2 hPa | 0 mm | - | - | - |
| 1777486813 | 17.78° C | 60% | 1012.8 hPa | 0 mm | - | - | - |
| 1777486212 | 17.78° C | 56% | 1012.9 hPa | 0 mm | - | - | - |
| 1777485013 | 18.89° C | 45% | 1012.8 hPa | 0 mm | - | - | - |
| 1777482913 | 21.11° C | 38% | 1012.8 hPa | 0 mm | - | - | - |
* Rain latest hour (hover to see other rain measurements)
** Current wind speed in m/s (hover to see current wind gust speed)